Printer-friendly version

IAU Minor Planet Center

Minor Planet Center

MPEC 2006-X19 : 2003 HA22

The following Minor Planet Electronic Circular may be linked-to from your own Web pages, but must not otherwise be redistributed electronically.


Read MPEC 2006-X18 Read MPEC 2006-X20


M.P.E.C. 2006-X19                                Issued 2006 Dec. 6, 12:44 UT

     The Minor Planet Electronic Circulars contain information on unusual
         minor planets and routine data on comets.  They are published
   on behalf of Commission 20 of the International Astronomical Union by the
          Minor Planet Center, Smithsonian Astrophysical Observatory,
                          Cambridge, MA 02138, U.S.A.

             Prepared using the Tamkin Foundation Computer Network

                              MPC@CFA.HARVARD.EDU
          URL http://cfa-www.harvard.edu/iau/mpc.html  ISSN 1523-6714

                                   2003 HA22

                           Revision to MPEC 2003-M14

Additional Observations:
     K03H22A 2C2006 11 28.45688204 51 46.096+20 20 51.70                EX019568
     K03H22A 2C2006 11 28.46003704 51 45.809+20 20 51.13         22.3 R EX019568
     K03H22A 2C2006 11 29.36685604 50 25.973+20 18 57.98         22.5 R EX019568
     K03H22A 2C2006 11 29.37406904 50 25.322+20 18 57.31                EX019568

Observer details:
568 Mauna Kea.  Observer F. Bernardi.  Measurers F. Bernardi, D. J. Tholen.
    2.24-m University of Hawaii reflector + 2048 CCD.

First and last observations above in comparison with prediction:
Residuals in seconds of arc, reference and Delta-T
061128 568 45.9+  7.1+    061129 568 46.1+  7.1+    MPO 66312   -0.028 day

Orbital elements:
2003 HA22                                                Earth MOID = 0.1188 AU
Epoch 2006 Sept. 22.0 TT = JDT 2454000.5                MPC
M  86.07296              (2000.0)            P               Q
n   0.38342686     Peri.  163.40071     +0.26271761     +0.96457843
a   1.8764962      Node   121.82500     -0.88841011     +0.25146033
e   0.3947112      Incl.    1.60721     -0.37643982     +0.07972546
P   2.57           H   19.4           G   0.15           U   1
Residuals in seconds of arc
030401 608  0.3-  0.1-    030616 644  0.2-  0.1+    030628 941  0.1+  0.1-
030411 691  0.5+  0.7+    030617 673  0.0   0.1-    030628 941  0.1+  0.1-
030411 691  0.3+  0.8+    030617 673  0.0   0.1-    030628 941  0.2+  0.1-
030411 691  0.7+  0.7+    030617 673  0.0   0.2-    030701 704  0.4+  0.7+
030421 703  1.7+  0.3+    030617 673  0.0   0.1-    030701 704  0.4+  0.9+
030421 703  1.3+  0.6-    030618 587  0.2-  0.6+    030701 704  0.0   0.3+
030421 703  0.1+  0.1+    030618 587  1.1-  0.6-    030701 704  0.1+  0.2+
030421 703  0.9+  0.0     030618 587  2.0-  1.7-    030703 704  0.6+  0.1+
030427 699  0.2-  0.2+    030619 185  0.7+  0.2-    030703 704  0.5+  0.7+
030427 699  0.5-  0.9-    030619 185  0.3-  0.2+    030703 704  0.7+  0.6+
030427 699  0.9-  0.4-    030619 185  0.7+  0.4+    030705 E14  0.6+  0.0
030427 699  0.5-  0.2-    030619 185  0.6+  0.9+    030705 E14  0.6+  0.2+
030428 704  0.0   0.2-    030619 185  0.0   0.6+    030705 E14  0.5+  0.3+
030428 704  0.4+  0.2+    030620 952  0.3-  0.2+    030712 608  0.4-  0.8+
030428 704  0.1-  0.1+    030620 952  0.2+  0.1-    030712 608  0.1+  0.1+
030428 704  0.1-  0.6+    030620 952  0.3-  0.0     030712 608  0.3-  0.6-
030428 704  0.8-  0.3+    030620 952  0.7+  0.5+    030713 170  1.3-  0.1-
030429 691  0.1-  0.8+    030620 952  1.0+  0.2-    030713 170  1.1-  0.1-
030429 691  0.2-  0.7+    030621 699  0.6-  0.0     030713 170  1.1-  0.2+
030429 691  0.1+  0.7+    030621 699  0.3-  0.2-    030722 608  0.3+  0.6+
030501 704  0.0   0.3-    030621 699  0.3-  0.1-    030722 608  0.5+  0.7+
030501 704  0.1-  0.2+    030621 699  0.1-  0.3-    030722 608  0.3+  0.5+
030501 704  0.2+  0.0     030621 215  0.6+  0.0     030722 J87  1.8-  0.3+
030501 704  0.2-  0.7-    030622 151  0.8-  0.7-    030722 J87  0.7+  0.3-
030501 704  0.1-  0.3-    030622 151  1.0+  0.2-    030722 J87  0.7-  0.5+
030505 699  0.5-  0.6-    030622 151  1.0+  0.2+    030725 J87  0.3+  0.5+
030505 699  0.0   0.6-    030622 151  1.0+  0.4+    030725 J87  0.1-  0.4+
030505 699  0.0   0.2-    030623 E14  0.1+  0.2-    030725 J87  0.5+  0.2+
030505 699  0.4-  0.6-    030623 E14  0.3+  0.2-    030726 J87  0.1-  0.3+
030508 704  0.4+  0.0     030623 E14  0.0   0.1+    030726 J87  0.7-  0.5+
030508 704  0.2+  0.2+    030624 185  0.9-  0.0     030726 J87  1.3+  0.5+
030508 704  0.7-  0.2-    030624 185  0.2+  0.1+    030801 J87  0.2+  0.1+
030508 704  0.1-  0.3-    030624 185  0.6-  0.4+    030801 J87  0.2-  0.4+
030508 704  0.1-  0.2-    030624 185  0.5+  0.1+    030801 J87 (2.4-  1.6+)
030522 703  0.7+  0.2-    030625 670  0.4-  0.2-    030914 474  0.1+  0.8-
030522 703  0.6+  0.4+    030625 670  0.7+  0.5-    030914 474  0.4-  0.6+
030522 703  0.3+  0.0     030626 704  0.1-  0.2+    030914 474  0.6+  0.5+
030522 703  1.4+  0.1-    030626 704  0.4+  0.1+    030914 474  0.3-  0.3+
030529 691  0.2-  0.0     030626 704  0.0   0.0     061128 568  0.2-  0.5+
030529 691  0.3-  0.2+    030626 704  0.4+  0.7+    061128 568  0.2-  0.3+
030529 691  0.3-  0.1-    030626 704  0.3+  0.8+    061129 568  0.0   0.2+
030616 644  0.0   0.1+    030628 941  0.1-  0.1-    061129 568  0.1+  0.4+
030616 644  0.0   0.0     030628 941  0.1+  0.1-

Ephemeris:
2003 HA22                a,e,i = 1.88, 0.39, 2                   q = 1.1358
Date    TT    R. A. (2000) Decl.     Delta      r     Elong.  Phase     V
2006 12 01    04 48.02   +20 15.5    1.371    2.354   174.9     2.1    22.2
2006 12 06    04 40.71   +20 04.7    1.385    2.369   177.0     1.3    22.2
2006 12 11    04 33.64   +19 53.8    1.406    2.384   170.8     3.8    22.4
2006 12 16    04 27.00   +19 43.3    1.436    2.398   164.3     6.4    22.6
2006 12 21    04 20.98   +19 33.7    1.472    2.411   157.8     8.9    22.8
2006 12 26    04 15.70   +19 25.4    1.514    2.424   151.5    11.2    22.9
2006 12 31    04 11.26   +19 18.9    1.563    2.437   145.3    13.3    23.1
2007 01 05    04 07.70   +19 14.5    1.618    2.449   139.4    15.1    23.2
2007 01 10    04 05.04   +19 12.2    1.677    2.461   133.7    16.8    23.4
2007 01 15    04 03.26   +19 12.3    1.740    2.473   128.2    18.2    23.5
2007 01 20    04 02.36   +19 14.5    1.807    2.484   122.9    19.4    23.6

Timothy B. Spahr             (C) Copyright 2006 MPC           M.P.E.C. 2006-X19

Read MPEC 2006-X18 Read MPEC 2006-X20


Our Web policy. Index to the CBAT/MPC/ICQ pages.


Valid HTML 4.01!